Regional Weather Roundup
Issued by NWS

Home | Current Version | Previous Version | Text Only | Print | Product List | Glossary Off
Versions: 1 2 3 4 5 6 7 8 9 10 11 12 13 14 15 16 17 18 19 20 21 22 23 24 25 26 27 28 29 30 31 32 33 34 35 36 37 38 39 40 41 42 43 44 45 46 47 48 49 50

000
ASUS45 KBOI 260510
RWRID
WEATHER ROUNDUP FOR IDAHO
NATIONAL WEATHER SERVICE BOISE ID
1000 PM MST SUN JAN 25 2015

NOTE: "FAIR" INDICATES FEW OR NO CLOUDS BELOW 12000 FEET
WITH NO SIGNIFICANT WEATHER AND/OR OBSTRUCTIONS TO VISIBILITY

IDZ012-014-260600-
SOUTHWEST IDAHO


CITY           SKY/WX    TMP DP  RH WIND       PRES   REMARKS
BOISE          PTCLDY    32  29  88 CALM      30.41F FOG
CALDWELL       CLOUDY    34  27  75 CALM      30.45S
MOUNTAIN HOME  CLEAR     30  29  94 NE6       30.42S WCI  24
$$

IDZ016-017-260600-
SOUTHCENTRAL IDAHO


CITY           SKY/WX    TMP DP  RH WIND       PRES   REMARKS
BURLEY         CLOUDY    32  30  92 NE16      30.40R WCI  21
JEROME         MOCLDY    32  28  85 NE17      30.40R WCI  21
TWIN FALLS     PTCLDY    34  30  85 E12       30.40R WCI  25
$$

IDZ019>023-260600-
SOUTHEAST IDAHO


CITY           SKY/WX    TMP DP  RH WIND       PRES   REMARKS
IDAHO FALLS    FOG       29  28  96 N6        30.46S VSB 1/4 WCI  23
POCATELLO      FOG       31  31 100 NE8       30.45S VSB 1/8 WCI  23
REXBURG        CLOUDY    32  32 100 N3        30.44S
$$

IDZ006-010-011-018-031-032-260600-
CENTRAL IDAHO MOUNTAINS


CITY           SKY/WX    TMP DP  RH WIND       PRES   REMARKS
MCCALL         PTCLDY    28  25  88 NE5       30.35F FOG     WCI  23
HAILEY         CLEAR     28  27  93 CALM      30.41S
STANLEY          N/A     25  20  81 CALM      30.44S
SALMON         CLEAR     23  19  86 SE3       30.42R
CHALLIS        CLEAR     32  29  88 N3        30.40S
$$

IDZ002-004-006-007-026-260600-
NORTHERN IDAHO


CITY           SKY/WX    TMP DP  RH WIND       PRES   REMARKS
LEWISTON       CLEAR     52  38  58 SE10      30.17S
LOWELL           N/A     37  35  92 N6        30.32S WCI  32
COEUR D`ALENE  MOCLDY    36  34  93 E7        30.18F WCI  30
MULLAN PASS    CLEAR     41  27  57 S8        30.24F
$$


USA.gov is the U.S. government's official web portal to all federal, state and local government web resources and services.